Вернуться в каталог

COSMOS 2251 DEB

LostVLEO
NORAD 36419·DEBRIS·🇷🇺 Russia

Запущен Jun 16, 1993 с Plesetsk Cosmodrome

Loading…

Ближайшие Пролёты (ближайшие 24 часа)

TLE

УстаревшееSource: Space-Track

Эпоха: Sep 28, 2025, 11:40 UTC

1 36419U 93036AZS 25271.48652179  .00533702  00000-0  15715-1 0  9993
2 36419  73.8021 330.3553 0028595 300.9220  58.9172 15.32416399640581

Отслеживайте COSMOS 2251 DEB в реальном времени с AllMySat

Download on the App Store